TimeCST,TemperatureF,Dew PointF,Humidity,Sea Level PressureIn,VisibilityMPH,Wind Direction,Wind SpeedMPH,Gust SpeedMPH,PrecipitationIn,Events,Conditions,WindDirDegrees,DateUTC
12:15 AM,46.4,28.2,49,30.19,10.0,South,13.8,-,N/A,,Scattered Clouds,180,2012-11-18 06:15:00
12:35 AM,46.9,28.2,48,30.19,10.0,South,12.7,-,N/A,,Mostly Cloudy,180,2012-11-18 06:35:00
1:15 AM,46.9,28.2,48,30.18,10.0,South,13.8,-,N/A,,Overcast,180,2012-11-18 07:15:00
1:55 AM,47.5,28.0,47,30.18,10.0,South,11.5,-,N/A,,Overcast,170,2012-11-18 07:55:00
2:15 AM,46.6,27.9,48,30.17,10.0,South,12.7,-,N/A,,Mostly Cloudy,170,2012-11-18 08:15:00
2:35 AM,45.1,28.4,52,30.17,10.0,South,10.4,-,N/A,,Mostly Cloudy,170,2012-11-18 08:35:00
2:55 AM,44.8,28.4,53,30.17,10.0,South,12.7,-,N/A,,Scattered Clouds,170,2012-11-18 08:55:00
3:15 AM,45.5,27.9,50,30.17,10.0,South,12.7,-,N/A,,Clear,180,2012-11-18 09:15:00
3:35 AM,44.8,28.0,52,30.17,10.0,South,12.7,18.4,N/A,,Clear,170,2012-11-18 09:35:00
3:55 AM,43.5,28.4,55,30.16,10.0,South,12.7,-,N/A,,Clear,170,2012-11-18 09:55:00
4:15 AM,42.8,28.4,57,30.16,10.0,South,11.5,-,N/A,,Clear,170,2012-11-18 10:15:00
4:35 AM,41.9,28.8,60,30.16,10.0,SSE,9.2,-,N/A,,Clear,160,2012-11-18 10:35:00
4:55 AM,41.2,28.8,61,30.16,10.0,South,9.2,-,N/A,,Clear,170,2012-11-18 10:55:00
5:15 AM,40.8,29.1,63,30.16,10.0,South,8.1,-,N/A,,Scattered Clouds,170,2012-11-18 11:15:00
5:35 AM,40.5,29.3,64,30.16,10.0,South,8.1,-,N/A,,Scattered Clouds,170,2012-11-18 11:35:00
5:55 AM,41.0,29.3,63,30.16,10.0,SSE,8.1,-,N/A,,Clear,160,2012-11-18 11:55:00
6:15 AM,41.4,29.3,62,30.15,10.0,South,9.2,-,N/A,,Clear,170,2012-11-18 12:15:00
6:35 AM,41.9,29.5,61,30.15,10.0,South,9.2,-,N/A,,Clear,170,2012-11-18 12:35:00
6:55 AM,41.9,29.3,61,30.15,10.0,South,10.4,-,N/A,,Clear,170,2012-11-18 12:55:00
7:15 AM,41.5,29.3,62,30.16,10.0,South,10.4,-,N/A,,Clear,170,2012-11-18 13:15:00
7:35 AM,41.9,29.7,62,30.15,10.0,South,12.7,-,N/A,,Clear,170,2012-11-18 13:35:00
7:55 AM,43.0,30.0,60,30.15,10.0,South,11.5,-,N/A,,Clear,180,2012-11-18 13:55:00
8:15 AM,44.6,30.2,57,30.15,10.0,South,12.7,-,N/A,,Clear,170,2012-11-18 14:15:00
8:35 AM,46.0,30.2,54,30.16,10.0,South,13.8,-,N/A,,Clear,180,2012-11-18 14:35:00
8:55 AM,47.1,30.6,53,30.16,10.0,South,15.0,19.6,N/A,,Clear,190,2012-11-18 14:55:00
9:15 AM,49.1,30.4,49,30.16,10.0,South,17.3,-,N/A,,Clear,190,2012-11-18 15:15:00
9:35 AM,50.4,31.3,48,30.16,10.0,South,15.0,19.6,N/A,,Clear,180,2012-11-18 15:35:00
9:55 AM,52.3,31.5,45,30.15,10.0,South,16.1,-,N/A,,Clear,180,2012-11-18 15:55:00
10:15 AM,54.5,31.1,41,30.15,10.0,South,18.4,23.0,N/A,,Clear,190,2012-11-18 16:15:00
10:35 AM,56.3,31.1,38,30.15,10.0,South,17.3,23.0,N/A,,Clear,190,2012-11-18 16:35:00
10:55 AM,56.8,30.4,37,30.14,10.0,SSW,18.4,23.0,N/A,,Clear,210,2012-11-18 16:55:00
11:15 AM,57.4,30.4,36,30.14,10.0,South,19.6,25.3,N/A,,Clear,190,2012-11-18 17:15:00
11:35 AM,58.3,31.3,36,30.13,10.0,South,18.4,23.0,N/A,,Clear,190,2012-11-18 17:35:00
11:55 AM,59.0,31.6,36,30.12,10.0,South,18.4,21.9,N/A,,Clear,190,2012-11-18 17:55:00
12:15 PM,60.3,32.2,35,30.11,10.0,South,13.8,20.7,N/A,,Clear,180,2012-11-18 18:15:00
12:35 PM,60.3,31.6,34,30.11,10.0,South,18.4,-,N/A,,Clear,190,2012-11-18 18:35:00
12:55 PM,59.9,32.0,35,30.10,10.0,South,15.0,-,N/A,,Clear,180,2012-11-18 18:55:00
1:15 PM,60.3,32.4,35,30.10,10.0,South,12.7,19.6,N/A,,Clear,180,2012-11-18 19:15:00
1:35 PM,61.2,32.9,35,30.08,10.0,South,13.8,20.7,N/A,,Clear,170,2012-11-18 19:35:00
1:55 PM,62.6,33.1,33,30.07,10.0,South,15.0,20.7,N/A,,Clear,170,2012-11-18 19:55:00
2:15 PM,62.1,33.4,34,30.08,10.0,South,17.3,-,N/A,,Scattered Clouds,180,2012-11-18 20:15:00
2:35 PM,61.9,33.6,35,30.07,10.0,South,19.6,-,N/A,,Overcast,170,2012-11-18 20:35:00
2:55 PM,60.3,33.1,36,30.06,10.0,South,19.6,24.2,N/A,,Scattered Clouds,170,2012-11-18 20:55:00
3:15 PM,60.3,34.3,38,30.06,10.0,South,16.1,21.9,N/A,,Clear,170,2012-11-18 21:15:00
3:35 PM,60.1,34.5,38,30.06,10.0,SSE,12.7,19.6,N/A,,Clear,160,2012-11-18 21:35:00
3:55 PM,59.4,34.2,39,30.07,10.0,South,18.4,23.0,N/A,,Clear,170,2012-11-18 21:55:00
4:15 PM,59.2,34.2,39,30.08,10.0,SSE,16.1,25.3,N/A,,Scattered Clouds,160,2012-11-18 22:15:00
4:35 PM,59.0,34.0,39,30.08,10.0,SSE,18.4,25.3,N/A,,Mostly Cloudy,160,2012-11-18 22:35:00
4:55 PM,58.6,34.0,40,30.08,10.0,SSE,16.1,21.9,N/A,,Overcast,160,2012-11-18 22:55:00
5:15 PM,58.3,34.2,40,30.08,10.0,SSE,16.1,21.9,N/A,,Overcast,160,2012-11-18 23:15:00
5:35 PM,58.1,34.2,41,30.07,10.0,SSE,15.0,23.0,N/A,,Overcast,160,2012-11-18 23:35:00
5:55 PM,57.7,34.7,42,30.08,10.0,SSE,15.0,21.9,N/A,,Overcast,160,2012-11-18 23:55:00
6:15 PM,57.6,34.9,43,30.09,10.0,South,18.4,25.3,N/A,,Overcast,170,2012-11-19 00:15:00
6:35 PM,57.4,35.6,44,30.10,10.0,South,17.3,-,N/A,,Overcast,170,2012-11-19 00:35:00
6:55 PM,56.8,35.6,45,30.10,10.0,SSE,13.8,-,N/A,,Mostly Cloudy,160,2012-11-19 00:55:00
7:15 PM,56.7,35.6,45,30.09,10.0,SSE,16.1,21.9,N/A,,Scattered Clouds,160,2012-11-19 01:15:00
7:35 PM,56.3,36.1,47,30.09,10.0,South,16.1,24.2,N/A,,Mostly Cloudy,170,2012-11-19 01:35:00
7:55 PM,55.6,36.5,49,30.09,10.0,South,16.1,-,N/A,,Overcast,170,2012-11-19 01:55:00
8:15 PM,55.4,36.5,49,30.09,10.0,South,18.4,21.9,N/A,,Overcast,170,2012-11-19 02:15:00
8:35 PM,54.1,37.8,54,30.09,10.0,South,16.1,20.7,N/A,,Overcast,170,2012-11-19 02:35:00
8:55 PM,54.7,37.4,52,30.08,10.0,South,17.3,26.5,N/A,Rain,Light Rain,170,2012-11-19 02:55:00
9:15 PM,54.9,36.5,50,30.09,10.0,South,17.3,21.9,N/A,,Mostly Cloudy,170,2012-11-19 03:15:00
9:35 PM,54.0,36.5,52,30.09,10.0,South,16.1,-,N/A,,Scattered Clouds,170,2012-11-19 03:35:00
9:55 PM,53.8,36.1,51,30.08,10.0,South,15.0,-,N/A,,Scattered Clouds,170,2012-11-19 03:55:00
10:35 PM,53.2,35.8,52,30.08,10.0,South,15.0,20.7,N/A,,Clear,170,2012-11-19 04:35:00
10:55 PM,52.9,35.8,52,30.07,10.0,South,15.0,-,N/A,,Clear,170,2012-11-19 04:55:00
11:15 PM,52.7,35.6,52,30.07,10.0,South,13.8,20.7,N/A,,Clear,170,2012-11-19 05:15:00
11:35 PM,52.0,35.2,53,30.07,10.0,South,13.8,-,N/A,,Clear,170,2012-11-19 05:35:00
11:55 PM,51.6,35.1,53,30.07,10.0,South,15.0,-,N/A,,Clear,170,2012-11-19 05:55:00